When you browse on this site, cookies collect data to enhance your experience and personalize the content and advertising you see.
Visit our Privacy Policy to learn more. By continuing to use the site, you agree to this use of cookies and data.
  • In Italy
  • List of Countries
  • For 7 days
  • Water Temperature
  • Satellite Maps
  • Weather Map
  • Weather Widgets
  • user-avatar
    Login

    Hourly Weather Pervomajskoe

    Today, 12 December, Wednesday

    Time Temperature Precipitation Wind Pressure Humidity
    00:00 0°C° 0.3 mm 10 mps 746 mmHg 90%
    01:00 0°C° 0.3 mm 9 mps 747 mmHg 90%
    02:00 0°C° 0.3 mm 9 mps 747 mmHg 90%
    03:00 0°C° 0 mm 8 mps 748 mmHg 90%
    04:00 0°C° 0 mm 8 mps 748 mmHg 89%
    05:00 0°C° 0 mm 7 mps 748 mmHg 89%
    06:00 0°C° 0 mm 7 mps 749 mmHg 88%
    07:00 0°C° 0 mm 7 mps 749 mmHg 88%
    08:00 0°C° 0 mm 7 mps 749 mmHg 87%
    09:00 0°C° 0 mm 7 mps 750 mmHg 86%
    10:00 0°C° 0 mm 7 mps 750 mmHg 85%
    11:00 0°C° 0 mm 7 mps 750 mmHg 83%
    12:00 +1°C° 0 mm 6 mps 750 mmHg 83%
    13:00 +1°C° 0 mm 6 mps 751 mmHg 82%
    14:00 +1°C° 0 mm 6 mps 751 mmHg 82%
    15:00 +1°C° 0 mm 6 mps 751 mmHg 81%
    16:00 +1°C° 0 mm 5 mps 752 mmHg 81%
    17:00 +1°C° 0 mm 5 mps 752 mmHg 81%
    18:00 +1°C° 0 mm 5 mps 752 mmHg 81%
    19:00 +1°C° 0 mm 5 mps 752 mmHg 81%
    20:00 +1°C° 0 mm 5 mps 753 mmHg 80%
    21:00 +1°C° 0 mm 5 mps 753 mmHg 80%
    22:00 +1°C° 0 mm 5 mps 753 mmHg 80%
    23:00 +1°C° 0 mm 5 mps 753 mmHg 80%

    Tomorrow, 13 December, Thursday

    Time Temperature Precipitation Wind Pressure Humidity
    00:00 +1°C° 0 mm 5 mps 753 mmHg 78%
    01:00 +1°C° 0 mm 5 mps 754 mmHg 77%
    02:00 +1°C° 0 mm 5 mps 754 mmHg 76%
    03:00 +1°C° 0 mm 5 mps 754 mmHg 76%
    04:00 0°C° 0 mm 5 mps 754 mmHg 76%
    05:00 0°C° 0 mm 5 mps 754 mmHg 76%
    06:00 0°C° 0 mm 5 mps 754 mmHg 76%
    07:00 0°C° 0 mm 5 mps 755 mmHg 76%
    08:00 0°C° 0 mm 5 mps 755 mmHg 76%
    09:00 +1°C° 0.1 mm 5 mps 755 mmHg 71%
    10:00 +2°C° 0.1 mm 6 mps 755 mmHg 66%
    11:00 +3°C° 0.1 mm 6 mps 755 mmHg 62%
    12:00 +3°C° 0.2 mm 6 mps 755 mmHg 62%
    13:00 +3°C° 0.2 mm 6 mps 755 mmHg 62%
    14:00 +5°C° 0.2 mm 5 mps 755 mmHg 63%
    15:00 +3°C° 0.1 mm 5 mps 755 mmHg 67%
    16:00 +3°C° 0.1 mm 4 mps 756 mmHg 71%
    17:00 +1°C° 0.1 mm 4 mps 756 mmHg 74%
    18:00 +1°C° 0.1 mm 4 mps 756 mmHg 76%
    19:00 +1°C° 0.1 mm 4 mps 756 mmHg 77%
    20:00 0°C° 0.1 mm 4 mps 756 mmHg 78%
    21:00 0°C° 0.1 mm 4 mps 757 mmHg 79%
    22:00 0°C° 0.1 mm 4 mps 757 mmHg 79%
    23:00 0°C° 0.1 mm 4 mps 757 mmHg 80%

    Day after tomorrow, 14 December, Friday

    Time Temperature Precipitation Wind Pressure Humidity
    00:00 0°C° 0.1 mm 4 mps 757 mmHg 79%
    01:00 0°C° 0.1 mm 4 mps 757 mmHg 79%
    02:00 0°C° 0.1 mm 4 mps 757 mmHg 78%
    03:00 0°C° 0 mm 4 mps 757 mmHg 77%
    04:00 0°C° 0 mm 4 mps 757 mmHg 77%
    05:00 +1°C° 0 mm 3 mps 757 mmHg 76%
    06:00 +1°C° 0 mm 3 mps 758 mmHg 75%
    07:00 +1°C° 0 mm 3 mps 758 mmHg 74%
    08:00 0°C° 0 mm 4 mps 758 mmHg 73%
    09:00 +1°C° 0 mm 4 mps 759 mmHg 69%
    10:00 +4°C° 0 mm 4 mps 759 mmHg 64%
    11:00 +5°C° 0 mm 5 mps 759 mmHg 59%
    12:00 +5°C° 0 mm 5 mps 759 mmHg 59%
    13:00 +5°C° 0 mm 4 mps 759 mmHg 59%
    14:00 +5°C° 0 mm 4 mps 759 mmHg 59%
    15:00 +4°C° 0 mm 4 mps 760 mmHg 63%
    16:00 +3°C° 0 mm 3 mps 760 mmHg 68%
    17:00 +3°C° 0 mm 2 mps 760 mmHg 73%
    18:00 +3°C° 0 mm 2 mps 760 mmHg 74%
    19:00 +2°C° 0 mm 2 mps 761 mmHg 75%
    20:00 +3°C° 0 mm 1 mps 761 mmHg 76%
    21:00 +3°C° 0 mm 1 mps 761 mmHg 77%
    22:00 +3°C° 0 mm 1 mps 761 mmHg 77%
    23:00 +2°C° 0 mm 1 mps 762 mmHg 78%

    15 December, Saturday

    Time Temperature Precipitation Wind Pressure Humidity
    00:00 +2°C° 0 mm 1 mps 762 mmHg 78%
    01:00 +2°C° 0 mm 1 mps 762 mmHg 78%
    02:00 +2°C° 0 mm 1 mps 762 mmHg 79%
    03:00 +2°C° 0 mm 1 mps 762 mmHg 79%
    04:00 +2°C° 0 mm 1 mps 762 mmHg 79%
    05:00 +2°C° 0 mm 1 mps 762 mmHg 79%
    06:00 +1°C° 0 mm 2 mps 762 mmHg 79%
    07:00 +1°C° 0 mm 2 mps 762 mmHg 78%
    08:00 +1°C° 0 mm 2 mps 762 mmHg 78%
    09:00 +2°C° 0 mm 2 mps 762 mmHg 73%
    10:00 +4°C° 0 mm 2 mps 763 mmHg 68%
    11:00 +5°C° 0 mm 2 mps 763 mmHg 63%
    12:00 +5°C° 0 mm 2 mps 763 mmHg 64%
    13:00 +4°C° 0 mm 3 mps 762 mmHg 64%
    14:00 +4°C° 0 mm 3 mps 762 mmHg 65%
    15:00 +3°C° 0 mm 4 mps 762 mmHg 71%
    16:00 +1°C° 0 mm 4 mps 763 mmHg 78%
    17:00 0°C° 0 mm 4 mps 763 mmHg 84%
    18:00 0°C° 0 mm 5 mps 763 mmHg 86%
    19:00 0°C° 0 mm 5 mps 763 mmHg 87%
    20:00 -1°C° 0 mm 5 mps 763 mmHg 89%
    21:00 -1°C° 0 mm 5 mps 763 mmHg 89%
    22:00 -1°C° 0 mm 5 mps 763 mmHg 89%
    23:00 -1°C° 0 mm 5 mps 762 mmHg 90%

    16 December, Sunday

    Time Temperature Precipitation Wind Pressure Humidity
    00:00 -2°C° 0 mm 6 mps 762 mmHg 90%
    01:00 -1°C° 0 mm 6 mps 762 mmHg 90%
    02:00 -1°C° 0 mm 6 mps 762 mmHg 91%
    03:00 -1°C° 0 mm 6 mps 762 mmHg 90%
    04:00 -1°C° 0 mm 7 mps 762 mmHg 90%
    05:00 -1°C° 0 mm 7 mps 762 mmHg 90%
    06:00 -1°C° 0 mm 7 mps 762 mmHg 90%
    07:00 -1°C° 0 mm 7 mps 762 mmHg 90%
    08:00 -1°C° 0 mm 7 mps 762 mmHg 91%
    09:00 0°C° 0 mm 7 mps 762 mmHg 87%
    10:00 +2°C° 0 mm 7 mps 762 mmHg 83%
    11:00 +3°C° 0 mm 7 mps 762 mmHg 78%
    12:00 +3°C° 0 mm 7 mps 762 mmHg 77%
    13:00 +3°C° 0 mm 7 mps 762 mmHg 76%
    14:00 +2°C° 0 mm 8 mps 762 mmHg 75%
    15:00 +2°C° 0 mm 8 mps 762 mmHg 79%
    16:00 +1°C° 0 mm 8 mps 762 mmHg 82%
    17:00 0°C° 0 mm 8 mps 762 mmHg 86%
    18:00 0°C° 0 mm 8 mps 762 mmHg 85%
    19:00 0°C° 0 mm 8 mps 762 mmHg 85%
    20:00 -1°C° 0 mm 8 mps 762 mmHg 84%
    21:00 -1°C° 0 mm 8 mps 762 mmHg 85%
    22:00 -1°C° 0 mm 8 mps 762 mmHg 85%
    23:00 -1°C° 0 mm 7 mps 762 mmHg 85%

    17 December, Monday

    Time Temperature Precipitation Wind Pressure Humidity
    00:00 -1°C° 0 mm 7 mps 762 mmHg 85%
    01:00 -2°C° 0 mm 8 mps 762 mmHg 86%
    02:00 -2°C° 0 mm 8 mps 762 mmHg 86%
    03:00 -2°C° 0 mm 8 mps 762 mmHg 86%
    04:00 -2°C° 0 mm 7 mps 762 mmHg 86%
    05:00 -2°C° 0 mm 7 mps 762 mmHg 85%
    06:00 -2°C° 0 mm 7 mps 762 mmHg 85%
    07:00 -2°C° 0 mm 7 mps 762 mmHg 85%
    08:00 -2°C° 0 mm 7 mps 762 mmHg 85%
    09:00 -1°C° 0 mm 7 mps 762 mmHg 82%
    10:00 0°C° 0 mm 7 mps 762 mmHg 79%
    11:00 0°C° 0 mm 7 mps 762 mmHg 77%
    12:00 0°C° 0 mm 7 mps 761 mmHg 77%
    13:00 +1°C° 0 mm 6 mps 761 mmHg 78%
    14:00 +1°C° 0 mm 6 mps 761 mmHg 78%
    15:00 -1°C° 0 mm 6 mps 761 mmHg 80%
    16:00 -1°C° 0 mm 6 mps 761 mmHg 81%
    17:00 -1°C° 0 mm 6 mps 761 mmHg 83%
    18:00 -1°C° 0.1 mm 6 mps 761 mmHg 84%
    19:00 -1°C° 0.1 mm 6 mps 761 mmHg 84%
    20:00 -1°C° 0.1 mm 5 mps 761 mmHg 85%
    21:00 -1°C° 0 mm 5 mps 761 mmHg 87%
    22:00 -1°C° 0 mm 4 mps 761 mmHg 88%
    23:00 -1°C° 0 mm 4 mps 761 mmHg 90%
    Show more